Regional Weather Roundup
Issued by NWS Little Rock, AR

Home | Current Version | Previous Version | Graphics & Text | Print | Product List | Glossary On
Versions: 1 2 3 4 5 6 7 8 9 10 11 12 13 14 15 16 17 18 19 20 21 22 23 24 25 26 27 28 29 30 31 32 33 34 35 36 37 38 39 40 41 42 43 44 45 46 47 48 49 50
000
ASUS44 KLZK 270305
RWRLZK

WEATHER ROUNDUP FOR ARKANSAS
NATIONAL WEATHER SERVICE LITTLE ROCK AR
900 PM CST THU FEB 26 2015

NOTE: "FAIR" INDICATES FEW OR NO CLOUDS BELOW 12,000 FEET WITH NO
SIGNIFICANT WEATHER AND/OR OBSTRUCTIONS TO VISIBILITY.

ARZ001-003-010-029-270400-
NORTHWEST ARKANSAS

CITY           SKY/WX    TMP DP  RH WIND       PRES   REMARKS
FAYETTEVILLE   CLEAR     20   4  50 N7        30.42R WCI  11
FORT SMITH     PTCLDY    28  10  46 N8        30.44R WCI  20
HARRISON       CLEAR     20   5  52 N7        30.39R WCI  11
BENTONVILLE    CLEAR     19   5  53 N10       30.42R WCI   8
ROGERS         CLEAR     19   5  54 N7        30.42R WCI  10
SILOAM SPGS    CLEAR     19   3  49 N10       30.43R WCI   8
HIGHFILL       CLEAR     20   5  52 N12       30.41R WCI   8
SPRINGDALE     CLEAR     19   3  49 N12       30.42R WCI   7
$$

ARZ004-005-016-270400-
NORTH CENTRAL ARKANSAS

CITY           SKY/WX    TMP DP  RH WIND       PRES   REMARKS
BATESVILLE     CLEAR     25  10  54 N6        30.43R WCI  18
FLIPPIN        CLEAR     25   7  46 N9        30.41R WCI  15
MTN HOME       CLEAR     20  10  65 N3        30.41R
$$

ARZ040-041-270400-
WEST CENTRAL ARKANSAS

CITY           SKY/WX    TMP DP  RH WIND       PRES   REMARKS
MENA           MOCLDY    32  14  47 N5        30.39R WCI  27
MOUNT IDA      PTCLDY    31  14  49 CALM      30.37R
$$

ARZ009-017-025-026-028-270400-
NORTHEAST ARKANSAS

CITY           SKY/WX    TMP DP  RH WIND       PRES   REMARKS
CORNING        CLOUDY    25  14  63 N14       30.45R WCI  13
JONESBORO      CLEAR     25  15  66 N10       30.42R WCI  15
NEWPORT        CLEAR     25  15  65 N15       30.44R WCI  13
WALNUT RIDGE   CLOUDY    27  14  59 N13       30.44R WCI  16
BLYTHEVILLE    CLOUDY    26  19  74 N18       30.42R WCI  13
$$

ARZ022-023-033-042-044-270400-
CENTRAL ARKANSAS

CITY           SKY/WX    TMP DP  RH WIND       PRES   REMARKS
LITTLE ROCK    PTCLDY    29  15  56 N7        30.42R WCI  22
N LITTLE ROCK  PTCLDY    28  19  70 N7        30.42R WCI  20
SEARCY         CLEAR     26  16  65 N12       30.44R WCI  16
HOT SPRINGS    PTCLDY    31  15  52 N5        30.39R WCI  26
RUSSELLVILLE   CLEAR     30  11  45 N8        30.41R WCI  22
CLINTON        FAIR      25  16  68 CALM      30.43R
$$

ARZ036-270400-
EAST ARKANSAS

CITY           SKY/WX    TMP DP  RH WIND       PRES   REMARKS
WEST MEMPHIS   CLOUDY    28  19  69 NE14      30.39R WCI  17
$$

ARZ050-053-066-070-073-270400-
SOUTHWEST ARKANSAS

CITY           SKY/WX    TMP DP  RH WIND       PRES   REMARKS
ARKADELPHIA    FAIR      32  22  67 N5        30.42R WCI  27
CAMDEN         PTCLDY    28  27  93 MISG      30.39S
TEXARKANA      PTCLDY    33  21  61 NE7       30.36R WCI  27
EL DORADO      CLEAR     28  26  92 NE5       30.37R WCI  23
DE QUEEN       MOCLDY    32  16  51 N9        30.39R WCI  24
$$

ARZ056-057-069-270400-
SOUTHEAST ARKANSAS

CITY           SKY/WX    TMP DP  RH WIND       PRES   REMARKS
PINE BLUFF     CLEAR     30  20  66 N12       30.40R WCI  20
STUTTGART      CLEAR     28  19  69 N15       30.41R WCI  17
MONTICELLO     CLEAR     31  25  78 CALM      30.38R

$$




USA.gov is the U.S. government's official web portal to all federal, state and local government web resources and services.